{"data":{"norad_id":56164,"intl_designator":"2023-050C","name":"CHECKMATE 4","alt_names":[],"object_type":"PAYLOAD","status":"ACTIVE","operator":null,"country":"US","launch_date":"2023-04-02","launch_site_code":"AFWTR","launch_vehicle":null,"mission":null,"orbit_class":"UNKNOWN","rcs_meters":null,"size_class":null,"mass_kg":null,"dimensions":null,"purposes":[],"wikipedia_slug":null,"has_3d_model":false,"image_url":null,"decayed_at":null,"tle_current":{"epoch":"2026-05-24T22:58:08.769216Z","epoch_age_seconds":74943,"freshness":"FRESH","line1":"1 56164U 23050C   26144.95704594  .00000094  00000+0  73734-4 0  9992","line2":"2 56164  81.0005  94.1136 0006742  43.1817 316.9867 13.84810511158922","mean_motion":13.84810511,"eccentricity":0.0006742,"inclination_deg":81.0005,"raan_deg":94.1136,"arg_perigee_deg":43.1817,"mean_anomaly_deg":316.9867,"bstar":7.3734e-5,"rev_number":15892,"period_min":103.98534590557,"perigee_km":941.93535292683,"apogee_km":951.81239759103,"semimajor_km":7325.0108752589,"source":"CELESTRAK","updated_at":"2026-05-25T13:37:59.367581Z"}}}